Torna al catalogo

STARLINK-32809

AttivoComunicazioniVLEO
NORAD 62849·PAYLOAD·🇺🇸 United States

Lanciato Jan 27, 2025 da Cape Canaveral Space Force Station

Loading…

Prossimi Passaggi (prossime 24 ore)

TLE

AggiornatoSource: CelesTrak SupGP

Epoca: Sep 14, 2026, 21:18 UTC

1 62849C 25019W   26257.88798611  .00017251  00000+0  62509-3 0  2573
2 62849  42.9997 100.1842 0001494 271.6971 312.0120 15.27556002    11

Traccia STARLINK-32809 in tempo reale con AllMySat

Download on the App Store